Regional Weather Roundup
Issued by NWS Sterling, VA

Home | Current Version | Previous Version | Graphics & Text | Print | Product List | Glossary On
Versions: 1 2 3 4 5 6 7 8 9 10 11 12 13 14 15 16 17 18 19 20 21 22 23 24 25 26 27 28 29 30 31 32 33 34 35 36 37 38 39 40 41 42 43 44 45 46 47 48 49 50
001
ASUS41 KLWX 261811
RWRLWX

REGIONAL WEATHER ROUNDUP
NATIONAL WEATHER SERVICE BALTIMORE MD/WASHINGTON DC
200 PM EDT MON JUN 26 2017

Note: "FAIR" indicates few or no clouds below 12,000 feet
with no significant weather and/or obstructions to visibility.
 TC=TEMPERATURE CELSIUS

 * =Non NWS site. Station does not report precipitation (e.g. rain,
    snow, etc.), thunder, or fog.

DCZ001-MDZ009-015-VAZ040>042-051-053>054-261900-
WASHINGTON METRO

CITY           SKY/WX    TMP DP  RH WIND       PRES   REMARKS
WASHINGTON NAT MOSUNNY   81  44  27 W10G16    30.06F
DULLES         MOSUNNY   77  44  30 W10       30.07F
ANDREWS AFB    MOSUNNY   80  44  28 SW7       30.06F
FT BELVOIR     SUNNY     82  44  26 NW8       30.06F
QUANTICO       MOSUNNY   80  53  39 SE9       30.06F
COLLEGE PARK*  SUNNY     78  43  28 W7        30.06S
LEESBURG*      PTSUNNY   81  52  36 NW3       30.08S
MANASSAS*      PTSUNNY   77  48  36 VRB5      30.07F
GAITHERSBURG*  PTSUNNY   76  47  35 W6        30.08F

$$

MDZ006>007-011-014-261900-
BALTIMORE METRO

CITY           SKY/WX    TMP DP  RH WIND       PRES   REMARKS
BWI AIRPORT    PTSUNNY   80  45  28 VRB7      30.05F
MD SCIENCE CTR   N/A     80  44  27 MISG      30.05F
MARTIN STATE   PTSUNNY   81  48  32 W10G16    30.06F
ANNAPOLIS      SUNNY     76  47  35 NW9       30.05F
FORT MEADE*    SUNNY     79  46  31 W7        30.08F

$$

MDZ012-015-019>023-261900-
MARYLAND EASTERN SHORE

CITY           SKY/WX    TMP DP  RH WIND       PRES   REMARKS
OCEAN CITY     SUNNY     77  59  53 VRB5      30.06F
SALISBURY      SUNNY     82  52  35 MISG      30.05F
BAY BRIDGE AP* SUNNY     81  46  30 W10       30.05F
CAMBRIDGE*     SUNNY     81  50  34 VRB5G12   30.06F
EASTON*        MOSUNNY   81  43  26 NW10G18   30.09F

$$

MDZ017>025-261900-
SOUTHERN MARYLAND

CITY           SKY/WX    TMP DP  RH WIND       PRES   REMARKS
PATUXENT RIVER PTSUNNY   80  55  42 E7        30.06F
ST INIGOES     SUNNY     81  51  35 SW7       30.06F
LEONARDTOWN*   MOSUNNY   79  50  36 SW9       30.08S

$$

MDZ003>005-261900-
NORTH CENTRAL MARYLAND

CITY           SKY/WX    TMP DP  RH WIND       PRES   REMARKS
FREDERICK*     SUNNY     79  43  27 NW79      30.09F
HAGERSTOWN APT MOSUNNY   75  47  36 W8        30.06F
WESTMINSTER*   SUNNY     79  46  31 W13       30.07F

$$

MDZ501>502-261900-
WESTERN MARYLAND

CITY           SKY/WX    TMP DP  RH WIND       PRES   REMARKS
OAKLAND*       NOT AVBL
CUMBERLAND*    SUNNY     77  46  33 W6        30.10S

$$

VAZ025>031-261900-
SHENANDOAH VALLEY

CITY           SKY/WX    TMP DP  RH WIND       PRES   REMARKS
WINCHESTER*    PTSUNNY   75  46  35 W5        30.06F
FRONT ROYAL*   PTSUNNY   79  46  31 S7        30.06F
LURAY*         PTSUNNY   77  50  38 SE5       30.08F
NEW MARKET*    PTSUNNY   77  47  34 S8        30.06F
STAUNTON*      MOSUNNY   75  50  40 S6        30.10F
WAYNESBORO*    MOSUNNY   73  49  41 W6        30.11F

$$

WVZ021-048>050-054>055-261900-
EASTERN WEST VIRGINIA PANHANDLE

CITY           SKY/WX    TMP DP  RH WIND       PRES   REMARKS
MARTINSBURG    MOSUNNY   77  46  33 S9        30.05F
PETERSBURG*    MOSUNNY   80  48  32 W9        30.07F

$$

VAZ036>039-050-261900-
CENTRAL FOOTHILLS

CITY           SKY/WX    TMP DP  RH WIND       PRES   REMARKS
CHARLOTTESVILL MOSUNNY   80  48  32 VRB6      30.07F
CULPEPER*      MOSUNNY   80  50  34 CALM      30.08F
ORANGE*        MOSUNNY   77  50  38 W5        30.08S
GORDONSVILLE*  MOSUNNY   80  50  36 SW5       30.07F
WARRENTON*     PTSUNNY   81  42  24 W5        30.07F

$$

VAZ055>057-261900-
NORTH AND CENTRAL PIEDMONT

CITY           SKY/WX    TMP DP  RH WIND       PRES   REMARKS
FREDERICKSBRG* MOSUNNY   81  52  36 S3        30.05F
STAFFORD*      PTSUNNY   80  46  30 W6        30.10F

$$

NCZ024-NYZ072-PAZ021-071-VAZ022-071-261900-
OTHER REGIONAL OBSERVATIONS

CITY           SKY/WX    TMP DP  RH WIND       PRES   REMARKS
NEW YORK CITY  MOSUNNY   76  48  37 MISG      30.03F
PHILADELPHIA   MOSUNNY   79  46  31 VRB5      30.03F
PITTSBURGH     PTSUNNY   70  46  42 SW13      30.05F
ROANOKE        MOSUNNY   76  48  37 SW6       30.13F
RICHMOND       MOSUNNY   80  54  40 VRB3      30.07F
RALEIGH        MOSUNNY   83  53  35 VRB5      30.11F

$$

ANZ530>537-261900-
MARINE OBSERVATIONS

STATION/POSITION TIME  TEMP    WIND        PRES
                       AIR SEA DIR/SP/G
                 (UTC) (F)     (DEG/KT/KT) (MB)
THOMAS PT LIGHT  1800   77 78  290/ 13/ 15   N/A
BALT KEY BRIDGE  1742   76     290/  9/ 11 1017.3F
COVE POINT       1742   76     150/  4/  6 1018.6F
LEWISETTA        1742   78 80   40/  6/  8 1018.0F
SOLOMONS ISLAND  1742   77 79  140/  4/  6   N/A
PINEY POINT      1742          340/  4/  5   N/A

$$





USA.gov is the U.S. government's official web portal to all federal, state and local government web resources and services.